STARLINK-2491 (48148 NORAD) Tracking and Keplerian Element Data

This shows tracking and keplerian element data for the satellite.

Feedback or suggestion? Click here.




ElementValue
Catalog48148
NameSTARLINK-2491
Epoch Orbit184
Epoch Day136.75001157
Epoch Year2021
RAAN146.7408
Inclination53.0453
Eccentricity0.000126
Argument of Perigee102.5805
Mean Anonmoly38.7981
Mean Motion15.54472836
Decay Rate-0.01176883
L11 48148U 21027BJ 21136.75001157 -.01176883 00000-0 -19550-1 0 9993
L22 48148 53.0453 146.7408 0001260 102.5805 38.7981 15.54472836 1841

Live tracking and technical data element details for STARLINK-2491 (NORAD 48148). STARLINK-2491 can be tracked NOW for your location showing map with azimuth and elevation plus other details from your city location.

Track the satellite on the map from your city or location and see movement details for azimuth, elevation, latitude, longitude, range, height, and movement on the map or in text.







IsCatalogInMostPopularTable: catalog: 48148, numindb: 14
Update: records affected: 1



GetName: 48148 STARLINK-2491

Hit Count: updated at: Mon, 17 May 2021 16:03:18 GMT